Tracking 29892 objects as of 21-Nov-2024
HD Live streaming from Space Station
objects crossing your sky now

STARLINK-4563

Track STARLINK-4563 now!
10-day predictions
STARLINK-4563 is classified as:


NORAD ID: 53561
Int'l Code: 2022-101AL
Perigee: 545.9 km
Apogee: 547.8 km
Inclination: 53.2 °
Period: 95.4 minutes
Semi major axis: 6917 km
RCS: Unknown
Launch date: August 19, 2022
Source: United States (US)
Launch site: AIR FORCE EASTERN TEST RANGE (AFETR)
Your satellite tracking list
Your tracking list is empty




NASA's NSSDC Master Catalog

Two Line Element Set (TLE):
1 53561U 22101AL  24325.56779430  .00000930  00000-0  76481-4 0  9995
2 53561  53.2184  32.5367 0001406  98.1287 261.9865 15.08847214124731
Source of the keplerian elements: AFSPC